Regional Weather Roundup
Issued by NWS Newport/Morehead, NC

Current Version | Previous Version | Graphics & Text | Print | Product List | Glossary Off
Versions: 1 2 3 4 5 6 7 8 9 10 11 12 13 14 15 16 17 18 19 20 21 22 23 24 25 26 27 28 29 30 31 32 33 34 35 36 37 38 39 40 41 42 43 44 45 46 47 48 49 50

313
ASUS42 KMHX 271913
RWRMHX
WEATHER ROUNDUP FOR EASTERN NORTH CAROLINA
NATIONAL WEATHER SERVICE NEWPORT/MOREHEAD CITY NC
300 PM EDT THU APR 27 2017

NOTE: "FAIR" INDICATES FEW OR NO CLOUDS BELOW 12,000 FEET
WITH NO SIGNIFICANT WEATHER AND/OR OBSTRUCTIONS TO VISIBILITY

NCZ015>017-031-032-045>047-102-103-272000-
NORTH COAST

CITY           SKY/WX    TMP DP  RH WIND       PRES   REMARKS
EDENTON        MOSUNNY   84  65  52 S15       29.88S
ELIZABETH CITY SUNNY     82  65  56 SW13G22   29.87F
KITTY HAWK     CLEAR     80  65  61 S10G16    29.89S
MANTEO         SUNNY     76  67  73 S16G22    29.91S

$$

NCZ045>047-081-094-103-104-272000-
CENTRAL COAST

CITY           SKY/WX    TMP DP  RH WIND       PRES   REMARKS
FRISCO         SUNNY     79  65  62 SW9       29.93F HAZE

$$

NCZ095-097-098-100-101-272000-
SOUTHERN COAST

CITY           SKY/WX    TMP DP  RH WIND       PRES   REMARKS
BEAUFORT       SUNNY     77  69  76 S16       29.93S
CEDAR ISLAND   NOT AVBL
JACKSONVILLE   NOT AVBL
PINEY ISLAND   CLEAR    N/A N/A N/A SW14G24   29.91R
WILMINGTON     MOSUNNY   82  61  48 SW21      29.91S


$$

NCZ011>013-027>030-043-044-078>080-089-090>093-098-272000-
COASTAL PLAIN

CITY           SKY/WX    TMP DP  RH WIND       PRES   REMARKS
AHOSKIE          N/A     81  62  51 S7G16     29.87S
CLINTON        SUNNY     83  61  47 SW8       29.89F
ELIZABETHTOWN  MOSUNNY   81  60  48 SW12G17   29.90S
GOLDSBORO      PTSUNNY   83  57  41 S12       29.87F
GREENVILLE     SUNNY     82  61  47 SW16G23   29.91S
HAVELOCK       NOT AVBL
KENANSVILLE    MOSUNNY   84  57  39 S7        29.89S
KINSTON        MOSUNNY   82  57  42 SW12G17   29.90S
NEW BERN       MOSUNNY   83  61  47 SW16G23   29.90S
RICHLANDS      PTSUNNY   83  62  49 S15       29.90R
ROCKY MOUNT    MOSUNNY   81  59  47 SW14G22   29.88S
WASHINGTON     MOSUNNY   82  61  48 SW14      29.88S
WHITEVILLE     CLOUDY    81  61  51 SW12      29.91S

$$

AMZ130-135-150-152-154-156-158-170-250-252-270-ANZ085-086-088-633-658-670-272000-
MARINE OBSERVATIONS

STATION/POSITION TIME  TEMP    WIND        PRES    WAVE   SWELL
                       AIR SEA DIR/SP/G            HT/PER HT/PER
                 (UTC) (F)     (DEG/KT/KT) (MB)    (FT/S) (FT/S)
CHESAPEAKE LIGHT NOT AVBL
64 E VA BEACH    1850   61 57  170/ 10/ 12 1013.3    5/ 9   5/ 9
DUCK             1848   77 58  180/ 15/ 17 1011.6
2 E DUCK         1830      63                N/A     3/11   2/11
OREGON INLET     1842   76 70  150/ 11/ 15 1012.6
13E OREGON INLT  1848      64                N/A     5/ 8   5/ 8
HATTERAS CG      1848   76 69  200/  8/ 13 1013.3
DIAMOND BUOY     1850   76 77  220/ 14/ 16 1013.4    5/ 9   3/ 9
CAPE LOOKOUT     1900   75     190/ 12/ 14 1013.3
BEAUFORT LAB     1848   74 68  200/ 13/ 16 1012.7
30 SE NEW RVR IN 1808   73     210/  8/ 10 1014.1
30 SE NEW RVR IN 1843      72                N/A     4/ 8   2/11
27 SE WRIGHTSVLE 1808   73 73  180/ 10/ 12 1014.0
5 SE WRIGHTSVLE  1808   72 71  170/ 10/ 16 1013.4
225 S CAPE HAT   1850   75 75  190/ 10/ 12 1017.7    5/ 8   5/ 8
41 SE CHARLESTON 1850   76 74  170/ 10/ 14 1013.5    4/ 8   3/ 8

$$




USA.gov is the U.S. government's official web portal to all federal, state and local government web resources and services.